TimeMDT,TemperatureF,Dew PointF,Humidity,Sea Level PressureIn,VisibilityMPH,Wind Direction,Wind SpeedMPH,Gust SpeedMPH,PrecipitationIn,Events,Conditions,WindDirDegrees,DateUTC
12:53 AM,19.0,15.1,85,30.19,7.0,North,8.1,-,N/A,,Overcast,360,2013-03-16 06:53:00
1:53 AM,19.0,14.0,81,30.19,10.0,North,6.9,-,N/A,,Overcast,350,2013-03-16 07:53:00
2:03 AM,19.4,14.0,80,30.09,9.0,NNE,5.8,-,N/A,,Overcast,30,2013-03-16 08:03:00
2:53 AM,19.0,14.0,81,30.19,9.0,North,4.6,-,N/A,,Overcast,360,2013-03-16 08:53:00
3:53 AM,19.0,14.0,81,30.18,10.0,Calm,Calm,-,N/A,,Overcast,0,2013-03-16 09:53:00
4:15 AM,19.4,14.0,80,30.10,9.0,ENE,3.5,-,N/A,,Overcast,70,2013-03-16 10:15:00
4:53 AM,19.0,14.0,81,30.17,10.0,Calm,Calm,-,N/A,,Overcast,0,2013-03-16 10:53:00
5:15 AM,19.4,15.8,86,30.09,9.0,NW,3.5,-,N/A,,Overcast,310,2013-03-16 11:15:00
5:53 AM,19.9,14.0,78,30.18,10.0,NW,9.2,-,N/A,,Overcast,320,2013-03-16 11:53:00
6:53 AM,19.9,14.0,78,30.19,10.0,NW,8.1,-,N/A,,Overcast,320,2013-03-16 12:53:00
7:15 AM,19.4,14.0,80,30.07,10.0,NNW,4.6,-,N/A,,Overcast,330,2013-03-16 13:15:00
7:53 AM,19.9,15.1,81,30.18,10.0,NNW,4.6,-,N/A,,Overcast,340,2013-03-16 13:53:00
8:40 AM,21.2,15.8,80,30.08,10.0,NNW,4.6,-,N/A,,Overcast,330,2013-03-16 14:40:00
8:53 AM,21.0,12.9,71,30.19,10.0,Calm,Calm,-,N/A,,Mostly Cloudy,0,2013-03-16 14:53:00
9:53 AM,24.1,12.9,62,30.18,10.0,WNW,5.8,-,N/A,,Overcast,300,2013-03-16 15:53:00
10:53 AM,26.1,12.9,58,30.18,10.0,Variable,3.5,-,N/A,,Overcast,0,2013-03-16 16:53:00
11:53 AM,26.1,16.0,66,30.18,3.0,Variable,4.6,-,0.00,Snow,Light Snow,0,2013-03-16 17:53:00
12:12 PM,26.6,17.6,69,30.07,1.8,Calm,Calm,-,0.00,Snow,Light Snow,0,2013-03-16 18:12:00
12:26 PM,24.8,17.6,74,30.06,1.5,NE,5.8,-,0.00,Snow,Light Snow,40,2013-03-16 18:26:00
12:36 PM,24.8,19.4,80,30.06,0.2,NE,3.5,-,0.00,Snow,Heavy Snow,50,2013-03-16 18:36:00
12:50 PM,24.8,19.4,80,30.06,0.2,NE,4.6,-,0.03,Fog-Snow,Heavy Snow,50,2013-03-16 18:50:00
12:53 PM,24.1,19.9,84,30.18,0.2,NE,3.5,-,0.03,Fog-Snow,Heavy Snow,50,2013-03-16 18:53:00
1:05 PM,24.8,19.4,80,30.05,0.5,ENE,5.8,-,0.00,Snow,Snow,60,2013-03-16 19:05:00
1:14 PM,24.8,19.4,80,30.05,0.5,ENE,5.8,-,0.01,Fog-Snow,Snow,70,2013-03-16 19:14:00
1:25 PM,24.8,19.4,80,30.05,0.2,ENE,3.5,-,0.01,Fog-Snow,Heavy Snow,60,2013-03-16 19:25:00
1:45 PM,24.8,21.2,86,30.05,0.5,NE,3.5,-,0.03,Fog-Snow,Snow,50,2013-03-16 19:45:00
1:53 PM,26.1,19.9,78,30.15,0.8,ENE,4.6,-,0.03,Snow,Light Snow,60,2013-03-16 19:53:00
1:57 PM,24.8,21.2,86,30.04,1.0,ENE,4.6,-,0.00,Snow,Light Snow,60,2013-03-16 19:57:00
2:08 PM,26.6,19.4,74,30.03,3.0,ENE,4.6,-,0.00,Snow,Light Snow,60,2013-03-16 20:08:00
2:53 PM,27.0,19.0,72,30.13,5.0,NE,3.5,-,0.00,,Haze,40,2013-03-16 20:53:00
3:19 PM,26.6,21.2,80,30.02,1.8,East,6.9,-,0.00,Snow,Light Snow,80,2013-03-16 21:19:00
3:35 PM,26.6,21.2,80,30.01,1.0,East,8.1,-,0.00,Snow,Light Snow,80,2013-03-16 21:35:00
3:50 PM,26.6,21.2,80,30.01,0.8,East,8.1,-,0.00,Snow,Light Snow,90,2013-03-16 21:50:00
3:53 PM,26.1,21.9,84,30.12,0.5,East,9.2,-,0.00,Fog-Snow,Snow,80,2013-03-16 21:53:00
4:01 PM,26.6,21.2,80,30.01,0.5,East,8.1,-,0.01,Fog-Snow,Snow,80,2013-03-16 22:01:00
4:13 PM,26.6,21.2,80,30.01,0.5,ENE,11.5,-,0.01,Fog-Snow,Snow,70,2013-03-16 22:13:00
4:23 PM,26.6,21.2,80,30.01,0.5,East,10.4,-,0.02,Fog-Snow,Snow,80,2013-03-16 22:23:00
4:43 PM,24.8,21.2,86,30.01,0.5,ENE,12.7,-,0.02,Fog-Snow,Snow,70,2013-03-16 22:43:00
4:53 PM,25.0,21.0,85,30.13,0.5,ENE,12.7,-,0.03,Fog-Snow,Snow,70,2013-03-16 22:53:00
5:02 PM,24.8,21.2,86,30.02,0.2,ENE,12.7,-,0.00,Fog-Snow,Heavy Snow,70,2013-03-16 23:02:00
5:16 PM,24.8,21.2,86,30.02,0.5,ENE,16.1,-,0.01,Fog-Snow,Snow,60,2013-03-16 23:16:00
5:31 PM,23.0,19.4,86,30.02,0.2,ENE,13.8,-,0.01,Fog-Snow,Heavy Snow,70,2013-03-16 23:31:00
5:44 PM,21.2,19.4,93,30.01,0.5,ENE,18.4,-,0.02,Fog-Snow,Snow,70,2013-03-16 23:44:00
5:51 PM,21.2,17.6,86,30.01,1.5,ENE,17.3,-,0.02,Snow,Light Snow,70,2013-03-16 23:51:00
5:53 PM,21.9,18.0,85,30.14,1.8,ENE,19.6,-,0.02,Snow,Light Snow,70,2013-03-16 23:53:00
6:00 PM,21.2,17.6,86,30.01,2.0,ENE,15.0,-,0.00,Snow,Light Snow,70,2013-03-17 00:00:00
6:02 PM,21.2,17.6,86,30.01,2.0,ENE,15.0,-,0.00,Snow,Light Snow,70,2013-03-17 00:02:00
6:09 PM,21.2,17.6,86,30.01,1.2,ENE,17.3,-,0.00,Snow,Light Snow,70,2013-03-17 00:09:00
6:27 PM,21.2,17.6,86,30.02,3.0,ENE,15.0,23.0,0.00,Snow,Light Snow,70,2013-03-17 00:27:00
6:53 PM,19.9,16.0,85,30.14,2.0,East,16.1,-,0.00,Snow,Light Snow,80,2013-03-17 00:53:00
6:55 PM,19.4,15.8,86,30.02,1.8,East,12.7,-,0.00,Snow,Light Snow,80,2013-03-17 00:55:00
7:04 PM,19.4,15.8,86,30.02,1.2,East,15.0,-,0.00,Snow,Light Snow,90,2013-03-17 01:04:00
7:18 PM,19.4,15.8,86,30.02,0.8,East,15.0,-,0.00,Snow,Light Snow,90,2013-03-17 01:18:00
7:43 PM,19.4,15.8,86,30.02,1.2,East,13.8,-,0.01,Snow,Light Snow,90,2013-03-17 01:43:00
7:53 PM,19.0,15.1,85,30.15,2.0,East,16.1,-,0.01,Snow,Light Snow,90,2013-03-17 01:53:00
8:00 PM,19.4,15.8,86,30.03,2.0,East,12.7,-,0.00,Snow,Light Snow,100,2013-03-17 02:00:00
8:09 PM,19.4,15.8,86,30.02,1.8,East,16.1,-,0.00,Snow,Light Snow,100,2013-03-17 02:09:00
8:39 PM,17.6,14.0,86,30.02,2.5,East,15.0,-,0.01,Snow,Light Snow,100,2013-03-17 02:39:00
8:50 PM,17.6,15.8,93,30.02,3.0,East,17.3,-,0.01,Snow,Light Snow,100,2013-03-17 02:50:00
8:53 PM,18.0,14.0,84,30.14,3.0,East,15.0,-,0.01,Snow,Light Snow,100,2013-03-17 02:53:00
9:24 PM,17.6,14.0,86,30.02,7.0,ESE,15.0,-,0.00,,Overcast,110,2013-03-17 03:24:00
9:35 PM,17.6,14.0,86,30.01,7.0,ESE,13.8,-,0.00,,Overcast,110,2013-03-17 03:35:00
9:53 PM,18.0,14.0,84,30.13,6.0,ESE,19.6,-,0.00,,Overcast,110,2013-03-17 03:53:00
10:31 PM,17.6,12.2,79,29.99,5.0,ESE,18.4,26.5,N/A,,Overcast,120,2013-03-17 04:31:00
10:53 PM,16.0,12.0,84,30.10,6.0,ESE,20.7,27.6,N/A,,Overcast,120,2013-03-17 04:53:00
11:53 PM,16.0,12.0,84,30.06,6.0,ESE,18.4,23.0,N/A,,Overcast,120,2013-03-17 05:53:00